Wind_Speed
20 20 17 17 22 18 16 18 14 8 8 13 19 25 24 18 16 8 13 13 14 18 15 13 14 11 6 7 8 9 12 14 13 14 14 14 14 13
21 22 21 20 18 19 18 19 17 15 8 17 20 22 22 17 14 15 14 15 18 21 18 14 10 10 10 10 10 8 8 9 10 10 12 12 11 10
15 17 19 22 23 24 23 20 16 14 12 21 19 18 19 19 17 14 13 14 14 16 17 15 13 15 14 15 16 16 14 12 11 10 10 11 12 11
18 23 24 24 26 28 27 24 22 20 16 12 14 18 20 22 21 20 17 11 14 15 22 21 19 18 19 18 15 14 15 16 18 18 17 16 13 13
21 23 27 28 28 25 27 26 25 17 14 12 9 16 20 22 25 23 22 21 15 15 11 14 18 19 19 20 21 19 18 18 19 19 18 19 19 18
23 24 26 25 26 26 26 26 25 22 20 18 15 13 14 18 19 16 19 16 14 11 17 18 10 11 17 19 21 22 21 21 21 22 22 22 23 22
23 23 25 26 25 25 22 19 19 17 18 17 17 15 13 14 13 14 16 20 18 9 9 5 4 6 6 5 14 23 25 25 24 24 23 23 23 25
23 27 27 23 21 22 21 16 15 14 17 18 15 12 13 13 19 19 18 15 4 9 15 14 11 9 6 8 11 11 13 18 18 20 23 22 23 23
22 27 27 22 24 23 22 20 18 14 12 13 13 16 18 19 21 21 17 14 14 16 17 17 17 17 15 10 8 10 12 14 16 16 18 17 17 21
22 25 24 25 24 23 24 23 20 19 19 19 18 21 20 22 21 20 20 17 20 20 18 13 20 21 20 19 16 15 15 17 18 21 24 22 22 21
21 22 23 25 23 19 15 17 18 20 20 16 16 15 15 17 20 21 19 16 14 18 22 16 14 17 17 20 22 22 23 23 23 23 22 25 25 25
21 22 22 22 19 18 15 18 18 20 18 18 19 21 22 24 24 22 22 15 14 6 20 12 20 18 7 17 17 18 22 23 23 21 21 24 24 25
21 21 23 23 24 16 18 19 20 17 16 18 19 20 18 17 17 17 21 23 19 17 21 13 13 16 13 12 17 20 18 19 20 20 20 18 19 23
21 24 27 22 19 18 17 15 12 14 14 15 14 16 16 14 14 15 18 19 22 25 24 20 14 20 17 14 12 22 17 14 13 12 14 16 19 20
22 21 18 18 17 19 17 15 13 14 10 9 8 10 13 12 12 11 9 11 16 21 22 22 25 21 20 14 9 13 14 11 11 14 12 12 18 18
21 16 18 19 21 18 20 18 18 17 14 13 13 14 13 13 12 11 13 12 7 11 13 18 21 24 20 22 19 19 19 13 7 12 15 16 14 19
16 16 17 19 19 19 19 20 19 18 17 15 15 14 14 14 13 14 15 8 6 9 11 7 11 16 22 21 16 21 21 21 19 17 16 16 14 13
15 16 15 18 16 17 18 19 20 17 18 18 16 14 14 15 15 15 15 15 12 14 11 8 6 10 13 15 19 19 18 19 17 12 11 9 12 13
15 16 17 18 17 16 18 19 21 18 19 19 19 18 17 17 15 17 17 17 15 16 15 16 6 3 3 3 4 8 14 14 12 11 10 8 11 12
16 15 17 17 17 16 19 18 21 20 21 20 20 21 21 18 16 16 16 15 14 12 13 14 14 9 2 2 1 1 1 5 8 10 10 8 9 11
15 15 16 17 17 17 19 19 19 19 19 19 20 22 23 20 18 16 15 14 14 13 11 15 11 8 7 4 0 3 3 2 3 3 5 6 6 5
12 13 13 14 16 15 17 19 18 20 19 19 19 21 22 21 21 16 16 15 15 15 14 12 10 3 3 4 2 4 4 1 2 3 4 3 3 1
12 13 12 12 14 15 15 16 17 19 18 18 17 19 20 23 21 20 15 15 14 18 18 16 13 9 6 4 3 5 4 4 0 2 2 4 3 3
Wind_Direction
327 317 314 311 305 316 310 276 250 281 288 296 305 317 321 308 304 332 289 289 277 247 255 228 239 255 252 259 259 258 253 249 250 255 261 265 264 264
318 319 326 318 309 306 319 323 311 299 292 296 294 310 323 334 327 305 318 311 279 270 244 231 233 242 249 258 262 264 266 263 259 262 262 266 269 271
341 348 343 342 326 306 302 294 287 293 297 306 313 332 333 334 334 347 330 292 309 261 242 250 266 262 266 265 267 267 262 265 273 274 275 277 273 271
346 335 334 331 322 320 322 308 300 287 274 293 325 331 338 336 331 326 325 293 318 269 251 256 264 265 266 262 262 261 264 269 274 275 275 279 284 281
336 332 325 323 321 316 315 313 295 300 304 306 306 314 317 324 328 324 325 314 292 292 288 256 258 261 261 256 253 257 265 271 279 283 280 277 276 274
328 323 319 314 308 305 307 302 292 273 278 295 299 301 308 308 315 353 352 356 355 305 275 271 271 255 256 253 252 255 267 272 275 278 280 279 273 268
328 327 318 310 304 303 306 310 307 287 281 275 284 294 305 306 315 324 335 335 325 338 332 338 352 297 290 283 260 259 263 266 273 278 278 278 275 273
327 328 322 315 313 317 317 308 302 314 291 278 272 270 276 290 296 300 306 312 316 312 338 317 321 315 319 290 272 281 274 275 282 291 286 281 275 273
322 322 318 315 316 312 309 305 305 295 291 288 276 272 274 281 287 290 289 282 277 284 295 298 292 291 284 278 282 254 246 264 281 284 284 289 283 273
319 319 313 313 315 309 306 301 297 290 287 278 272 274 273 278 276 277 275 279 286 287 284 272 284 281 280 279 273 264 271 274 275 280 283 281 277 275
326 316 315 314 313 312 317 317 311 299 296 286 280 274 277 274 269 269 259 265 271 271 274 272 286 290 286 283 279 277 274 271 272 275 278 278 277 272
324 320 323 319 322 322 311 312 304 301 301 291 282 285 287 284 279 268 267 262 241 273 269 252 266 266 285 283 280 280 275 272 274 272 277 275 271 269
328 327 327 321 318 318 311 301 294 298 292 293 294 293 292 290 286 275 259 250 242 242 258 251 257 257 252 256 274 282 286 285 278 281 278 275 274 268
332 329 329 336 339 328 323 315 316 302 295 296 295 294 295 299 304 299 265 256 257 254 265 260 239 240 236 252 261 279 276 276 283 276 273 274 272 272
338 337 348 348 358 8 15 8 354 355 331 325 324 332 329 323 317 318 309 285 261 256 261 259 240 234 230 230 245 256 277 269 272 284 266 299 273 263
351 4 2 8 14 13 15 18 22 18 13 5 354 350 353 355 348 344 332 318 293 282 264 256 256 251 235 239 241 253 262 256 238 276 291 292 290 269
357 6 7 5 3 5 8 12 14 14 10 6 1 359 357 356 354 3 2 354 306 312 320 295 255 245 247 245 239 251 260 264 266 268 265 281 292 300
11 359 2 5 3 2 0 354 353 9 10 11 5 8 2 355 354 16 23 18 16 355 345 331 276 230 240 250 257 257 260 259 268 268 262 260 281 296
12 2 4 8 4 1 360 357 352 8 16 18 13 10 6 15 18 24 23 21 16 13 47 40 56 213 209 204 256 265 256 252 250 265 263 260 280 292
11 4 4 7 7 4 5 2 6 11 15 15 15 14 6 14 15 18 18 15 16 14 26 33 34 35 15 213 282 255 17 238 245 267 279 283 287 282
6 4 4 7 6 7 9 10 14 10 10 13 15 14 15 8 8 19 19 21 23 22 6 5 357 343 354 334 312 218 161 59 355 316 300 309 298 299
358 357 0 5 2 4 8 10 8 6 6 7 10 15 19 7 5 11 25 25 25 19 4 354 8 343 351 12 347 176 160 144 87 55 40 2 295 297
347 351 351 354 353 359 5 4 3 1 7 8 9 10 12 9 13 17 19 26 22 14 16 10 12 18 355 347 347 176 208 205 323 340 272 347 341 300
Height
809 807 803 802 801 799 797 796 792 788 783 782 781 779 775 774 771 768 769 768 767 769 771 772 774 774 774 779 781 781 782 784 786 787 790 791 792 793
806 804 801 799 797 795 793 792 790 787 782 781 778 776 774 773 770 768 768 767 766 766 769 771 770 771 772 777 779 780 781 782 783 784 786 788 790 791
803 801 799 796 794 791 788 786 784 784 782 777 775 773 771 770 769 767 767 764 765 764 763 764 764 769 770 773 775 778 781 782 782 782 784 785 786 788
802 799 796 794 792 789 787 783 781 778 775 774 772 771 769 769 767 766 765 766 765 762 763 762 764 766 767 769 771 775 776 777 779 780 782 783 784 785
799 797 794 791 788 786 783 779 776 774 773 771 768 768 767 766 764 763 762 760 760 761 761 761 763 762 765 765 768 769 771 772 775 776 777 779 781 782
795 793 790 787 784 782 779 775 771 768 767 766 765 765 764 764 764 762 759 759 757 757 759 759 759 761 761 759 761 764 767 768 770 772 773 774 776 778
790 787 784 781 779 776 773 768 765 763 762 761 760 760 760 760 761 760 759 759 757 758 755 754 754 754 753 754 756 760 762 764 765 767 768 769 772 773
785 781 778 776 773 770 767 764 762 760 758 757 756 756 756 757 757 757 756 756 755 753 751 750 751 751 752 753 755 756 758 759 759 760 762 764 766 767
781 777 773 771 768 764 761 759 757 756 754 753 753 752 752 752 753 753 753 753 752 751 751 749 748 748 750 752 753 754 755 755 753 756 758 759 760 760
778 774 770 766 763 759 756 753 751 750 749 748 747 746 746 746 748 748 748 747 747 746 746 743 744 743 745 746 747 748 749 750 751 752 752 754 755 755
774 770 766 762 758 754 751 748 745 743 743 743 742 741 742 742 742 743 742 743 741 740 740 740 739 739 739 738 739 740 743 744 745 746 746 746 747 748
770 766 762 758 754 751 748 745 742 740 739 738 737 736 736 735 736 736 736 736 736 735 733 736 734 736 734 733 733 734 735 737 739 739 739 739 739 739
767 763 758 754 750 747 744 741 738 736 735 733 732 730 729 728 728 728 728 729 729 729 728 731 730 730 732 731 730 731 732 732 732 733 733 733 732 733
766 761 756 751 747 743 740 737 735 733 731 729 728 726 725 724 723 721 721 722 722 722 723 724 725 726 726 727 727 725 727 728 728 728 728 728 727 727
764 760 755 751 746 742 738 735 733 730 728 727 726 724 723 721 719 717 716 715 715 715 716 717 718 719 721 721 722 721 723 722 723 724 723 722 721 722
763 759 755 751 747 744 740 737 734 732 730 728 725 723 721 719 717 715 713 711 710 709 709 710 711 713 714 715 717 717 718 719 718 719 719 717 717 717
763 760 756 752 748 745 742 739 736 733 730 728 725 723 720 718 715 713 710 708 708 707 705 705 706 707 709 711 711 711 711 713 714 715 714 713 712 711
763 761 758 755 751 748 745 741 738 735 732 728 726 723 721 718 715 713 711 709 707 705 703 702 702 703 705 706 707 707 707 707 709 709 710 709 708 708
765 762 760 757 754 751 748 744 740 737 734 730 727 724 721 718 716 714 712 710 708 706 705 703 701 702 703 704 704 703 702 703 704 705 706 705 704 703
766 763 761 758 755 753 750 746 743 739 736 732 729 725 722 720 717 716 714 712 710 708 707 706 705 704 704 704 703 702 701 701 701 701 702 701 700 700
766 764 762 759 757 754 751 748 745 742 738 734 731 728 724 722 719 718 715 713 711 709 708 706 705 704 703 702 702 701 701 701 700 699 699 698 698 697
766 764 762 760 757 754 752 749 746 742 738 735 733 730 727 725 721 719 717 714 713 711 708 706 704 703 702 701 700 699 700 700 700 700 699 699 698 697
765 763 761 759 757 754 752 749 747 743 740 737 734 732 729 726 724 721 719 716 714 712 709 706 704 703 701 701 700 699 699 699 699 699 700 699 698 697